Погода в Тутлингене

Германия     47°59′00″N   8°49′43″E
темп.,
°C
ветер,
м/с
пор.,
м/с
влажн.,
%
обл.,
%
осадки,
мм/ч
давл.,
гПа
погр.,
м
15 апреля, чт
чт1523:00−1ссв2672100 0.0 1028176
02:00−3ссв227471 0.0 102840
05:00−5ссв238314 0.0 102856
08:00−2ссв26696 0.0 1028229
11:00+3всв3449100 0.3 10261895
14:00+5св4543100 0.8 10252022
17:00+4ссв565586 0.4 10241293
20:00+1ссв497323 0.7 1025457
16 апреля, пт
пт1623:00−1св311762 0.0 1026409
02:00−3св310792 0.0 1025314
05:00−4ссв27885 0.0 1025197
08:00−2св39775 0.0 1025404
11:00+4св45477 0.0 10231273
14:00+7св453831 0.0 10201784
17:00+6ссв564791 0.0 10201503
20:00+1ссв410795 0.0 1023505
17 апреля, сб
сб1723:00−2ссв39955 0.0 1024255
02:00−3ссв26977 0.0 1024159
05:00−2ссв259897 0.0 1023185
08:000св3783100 0.0 1023577
11:00+3св466999 0.0 1022993
14:00+4ссв4568100 0.0 10211092
17:00+5ссв3560100 0.0 10201089
20:00+3св3889100 0.1 1021503
18 апреля, вс
вс1823:00+1ссв269596 0.0 1022299
02:000ссв249891 0.0 1022185
05:000с1297100 0.0 102294
08:00+1ссв1391100 0.0 1022242
11:00+5св237099 0.1 10221052
14:00+6ссв2368100 0.3 10211160
17:00+6св347595 0.3 1021844
20:00+4ссв249199 0.5 1022136
19 апреля, пн
пн1923:00+2с2498100 0.2 1024147
02:00+2ссв139899 0.6 1023219
05:00+1с119789 0.0 102224
08:00+2с1296100 0.1 1022256
11:00+5всв138591 0.3 1020741
14:00+7всв227769 0.8 1019823
17:00+8ссв237632 0.8 1017836
20:00+4ссв229112 1.5 101829